User: anonymous   Login
Location: Unspecified
(0.0000°N, 0.0000°E)
Time: 23:04:49
(UTC+00:00)
Language:

CUTE 1.7 + AOD 2 - Orbit

View from above orbital plane
View from above orbital plane
View from above satellite
View from above satellite

Ground track
Ground track

The orbit data is extracted from the following two-line orbital elements,

1 32785U 08021C   16045.39453836  .00001337  00000-0  15346-3 0  9999
2 32785  97.6188  84.6698 0012969 353.1334   6.9703 14.87392918422225
Epoch (UTC): 14 February 2016 09:28:08
Eccentricity: 0.0012969
inclination: 97.6188°
perigee height: 597 km
apogee height: 615 km
right ascension of ascending node: 84.6698°
argument of perigee: 353.1334°
revolutions per day: 14.87392918
mean anomaly at epoch: 6.9703°
orbit number at epoch: 42222

The dashed part of the orbit path shows where the satellite is in the earth's shadow,  

DLR